Date,TemperatureHighF,TemperatureAvgF,TemperatureLowF,DewpointHighF,DewpointAvgF,DewpointLowF,HumidityHigh,HumidityAvg,HumidityLow,PressureMaxIn,PressureMinIn,WindSpeedMaxMPH,WindSpeedAvgMPH,GustSpeedMaxMPH,PrecipitationSumIn
2013-3-1,33.7,31.1,26.8,30.0,27.1,22.0,95,85,72,30.12,29.96,10,5,0,0.01
2013-3-2,33.1,28.3,25.4,23.0,20.6,19.0,83,73,62,30.12,30.07,13,7,0,0.00
2013-3-3,32.4,28.6,24.2,21.0,17.4,-99.9,81,67,60,30.11,30.06,12,-17,0,0.00
2013-3-4,36.6,28.4,19.0,29.0,21.8,17.0,93,77,53,30.16,30.02,11,2,0,0.00
2013-3-5,33.8,30.9,27.6,31.0,28.8,27.0,96,92,81,30.04,29.70,18,6,0,0.01
2013-3-6,34.6,30.9,26.7,31.0,28.2,25.0,96,90,80,30.26,29.80,21,8,0,0.16
2013-3-7,37.7,33.5,28.1,31.0,28.4,23.0,94,82,66,30.41,30.26,7,3,0,0.08
2013-3-8,39.8,29.8,18.5,27.0,23.3,17.0,94,78,58,30.51,30.40,5,1,0,0.00
2013-3-9,43.6,35.4,26.2,36.0,30.2,22.0,89,81,70,30.39,29.95,12,4,0,0.01
2013-3-10,61.6,52.2,43.4,48.0,41.1,36.0,80,66,53,29.95,29.71,22,9,0,0.02
2013-3-11,55.3,44.7,33.6,49.0,41.8,32.0,96,90,62,29.79,29.56,21,10,0,0.15
2013-3-12,36.9,33.1,30.5,31.0,27.9,24.0,94,81,67,29.99,29.79,22,10,0,0.00
2013-3-13,31.9,28.1,26.1,28.0,20.3,15.0,88,73,52,30.32,29.99,18,8,0,0.00
2013-3-14,40.6,31.3,22.6,30.0,22.1,17.0,89,70,49,30.35,30.14,12,5,0,0.00
2013-3-15,47.9,37.9,29.6,42.0,34.5,28.0,95,88,68,30.14,29.77,11,4,0,0.07
2013-3-16,42.2,37.2,31.0,41.0,35.1,27.0,97,92,80,30.08,29.61,14,5,0,0.00
2013-3-17,37.0,31.4,29.5,27.0,25.1,24.0,85,78,66,30.20,30.06,16,6,0,0.00
2013-3-18,37.4,32.4,29.1,37.0,30.1,24.0,97,91,77,30.05,29.57,15,7,0,0.06
2013-3-19,36.1,28.7,22.3,25.0,18.5,14.0,81,66,51,30.07,29.80,29,14,0,0.00
2013-3-20,31.3,25.6,21.3,20.0,13.6,8.0,76,61,44,30.07,29.99,26,10,0,0.00
2013-3-21,34.3,24.6,16.2,19.0,14.4,11.0,85,67,43,30.04,29.99,16,6,0,0.00
2013-3-22,41.3,30.9,20.1,21.0,18.7,17.0,88,63,41,30.07,29.99,14,3,0,0.00
2013-3-23,41.3,33.0,26.1,28.0,23.6,18.0,85,69,54,30.11,29.97,14,3,0,0.00
2013-3-24,36.1,31.1,28.2,29.0,25.8,24.0,95,81,65,29.99,29.54,23,8,0,0.00
2013-3-25,36.3,32.3,28.0,31.0,28.7,27.0,96,87,73,29.99,29.56,17,9,0,0.05
2013-3-26,38.4,34.1,31.2,31.0,28.9,25.0,92,82,58,30.22,29.99,14,6,0,0.00
2013-3-27,41.9,36.5,28.3,31.0,27.6,26.0,90,71,54,30.31,30.22,13,6,0,0.00
2013-3-28,47.7,36.2,26.9,33.0,27.2,24.0,90,72,48,30.35,30.28,15,4,0,0.00
2013-3-29,52.6,43.6,30.0,33.0,27.9,23.0,92,57,35,30.32,30.21,10,3,0,0.00
2013-3-30,54.8,42.5,27.8,39.0,31.3,23.0,90,66,47,30.24,29.92,15,4,0,0.00
2013-3-31,59.1,49.5,41.0,44.0,39.0,31.0,96,69,44,29.91,29.68,18,7,0,0.00